Location: Gymnasium_Grossenhain
(51.3000°N, 13.5950°E)
Time: 11:17:30
(UTC+02:00)

Envisat - Visible Passes

Search period start: 12 October 2024 00:00
Search period end: 22 October 2024 00:00
Orbit: 762 x 764 km, 98.3° (Epoch: 11 October)

Date Brightness Start Highest point End Pass type
(mag) Time Alt. Az. Time Alt. Az. Time Alt. Az.
12 Oct 3.5 04:05:42 10° NNE 04:10:23 56° E 04:10:23 56° E visible
12 Oct 4.0 05:45:14 10° N 05:49:22 26° WNW 05:50:31 24° W visible
13 Oct 4.7 03:28:35 10° NNE 03:32:20 28° E 03:32:20 28° E visible
13 Oct 3.2 05:07:18 10° N 05:12:09 47° WNW 05:12:27 47° WNW visible
14 Oct 5.6 02:52:14 10° NE 02:54:15 14° ENE 02:54:15 14° ENE visible
14 Oct 3.0 04:29:38 10° NNE 04:34:24 78° NNE 04:34:24 78° NNE visible
14 Oct 4.5 06:09:44 10° NNW 06:13:04 18° NW 06:14:32 16° WNW visible
15 Oct 4.1 03:52:16 10° NNE 03:56:20 41° ENE 03:56:20 41° ENE visible
15 Oct 3.7 05:31:32 10° N 05:35:59 32° WNW 05:36:28 31° WNW visible
16 Oct 5.2 03:15:20 10° NE 03:18:16 21° ENE 03:18:16 21° ENE visible
16 Oct 3.0 04:53:42 10° N 04:58:24 59° NW 04:58:24 59° NW visible
16 Oct 4.8 06:34:40 10° NNW 06:36:41 12° NW 06:38:32 10° WNW visible
17 Oct 5.9 02:39:47 10° ENE 02:40:11 11° ENE 02:40:11 11° ENE visible
17 Oct 3.5 04:16:08 10° NNE 04:20:20 57° NE 04:20:20 57° NE visible
17 Oct 4.2 05:55:54 10° N 05:59:43 22° WNW 06:00:27 21° WNW visible
18 Oct 4.7 03:38:53 10° NNE 03:42:15 30° ENE 03:42:15 30° ENE visible
18 Oct 3.5 05:17:51 10° N 05:22:23 39° WNW 05:22:23 39° WNW visible
19 Oct 5.5 03:02:12 10° NE 03:04:10 16° ENE 03:04:10 16° ENE visible
19 Oct 3.2 04:40:07 10° NNE 04:44:19 59° N 04:44:19 59° N visible
19 Oct 4.6 06:20:32 10° NNW 06:23:22 15° NW 06:24:27 14° WNW visible
20 Oct 4.1 04:02:39 10° NNE 04:06:13 41° NE 04:06:13 41° NE visible
20 Oct 4.0 05:42:08 10° N 05:46:19 27° WNW 05:46:22 27° WNW visible
21 Oct 5.1 03:25:33 10° NE 03:28:09 23° ENE 03:28:09 23° ENE visible
21 Oct 3.4 05:04:12 10° N 05:08:17 45° NW 05:08:17 45° NW visible
21 Oct 4.9 06:46:06 10° NW 06:46:55 10° NW 06:47:45 10° WNW visible
